Rogers, AR

12:21 AM CST on January 17, 2017 (GMT -0600)
Rogers Municipal-Carter

Weather History for KROG - April, 2014

Change the Weather History Date:

Monday, April 14, 2014

  Actual Average Record
Temperature  
Mean Temperature 40 °F -  
Max Temperature 46 °F 65 °F 82 °F (2006)
Min Temperature 34 °F 46 °F 26 °F (2008)
Degree Days  
Heating Degree Days 25    
Moisture  
Dew Point 33 °F    
Average Humidity 82    
Maximum Humidity 97    
Minimum Humidity 53    
Precipitation  
Precipitation 0.00 in - - ()
Sea Level Pressure  
Sea Level Pressure 29.97 in    
Wind  
Wind Speed 12 mph (NNW)    
Max Wind Speed 17 mph    
Max Gust Speed 28 mph    
Visibility 9 miles    
Events Rain    
Averages and records for this station are not official NWS values.
T = Trace of Precipitation, MM = Missing Value Source: NWS Daily Summary

Daily Weather History Graph

Daily Weather History Graph

Search for Another Location

Airport or City:

Trip Planner

Search our weather history database for the weather conditions in past years. The results will help you decide how hot, cold, wet, or windy it might be!

Date:

Astronomy

Apr. 14, 2014 Rise Set
Actual Time 6:44 AM CDT 7:49 PM CDT
Civil Twilight 6:17 AM CDT 8:16 PM CDT
Nautical Twilight 5:46 AM CDT 8:47 PM CDT
Astronomical Twilight 5:13 AM CDT 9:20 PM CDT
Moon 7:29 PM CDT (4/14) 6:15 AM CDT (4/14)
Length of Visible Light 13h 58m
Length of Day
13h 05m
Full, 100% of the Moon is Illuminated
Apr 14
Full
Apr 15
Full
Apr 22
Last Quarter
Apr 29
New
May 6
First Quarter

Hourly Weather History & Observations

Time (CDT) Temp. Windchill Dew Point Humidity Pressure Visibility Wind Dir Wind Speed Gust Speed Precip Events Conditions
12:57 AM 46.0 °F 39.9 °F 44.1 °F 93% 29.75 in 6.0 mi WNW 13.8 mph 21.9 mph 0.00 in Rain Light Rain
1:57 AM 43.0 °F 36.8 °F 41.0 °F 93% 29.78 in 5.0 mi WNW 11.5 mph - 0.00 in Rain Light Rain
2:18 AM 42.8 °F 35.4 °F 39.2 °F 87% 29.79 in 4.0 mi WNW 15.0 mph - 0.00 in Rain Light Rain
2:57 AM 39.9 °F 32.5 °F 39.0 °F 97% 29.79 in 5.0 mi NW 12.7 mph - 0.00 in   Overcast
3:20 AM 39.2 °F 32.0 °F 37.4 °F 93% 29.80 in 7.0 mi NW 11.5 mph 20.7 mph N/A   Overcast
3:57 AM 39.0 °F 32.3 °F 37.0 °F 93% 29.82 in 9.0 mi NW 10.4 mph 19.6 mph N/A   Overcast
4:28 AM 39.2 °F 31.2 °F 37.4 °F 93% 29.83 in 9.0 mi NW 13.8 mph - N/A   Overcast
4:57 AM 37.9 °F 29.2 °F 36.0 °F 93% 29.83 in 10.0 mi NW 15.0 mph 24.2 mph 0.00 in Rain Light Rain
5:07 AM 37.4 °F 29.3 °F 35.6 °F 93% 29.85 in 10.0 mi NW 12.7 mph - 0.00 in   Overcast
5:17 AM 37.4 °F 30.3 °F 35.6 °F 93% 29.85 in 10.0 mi NW 10.4 mph - 0.00 in   Overcast
5:57 AM 37.9 °F 32.1 °F 36.0 °F 93% 29.85 in 8.0 mi NNW 8.1 mph - 0.00 in Rain Light Rain
6:57 AM 37.0 °F 29.8 °F 35.1 °F 93% 29.88 in 4.0 mi NNW 10.4 mph 18.4 mph 0.00 in   Overcast
7:33 AM 37.4 °F 29.8 °F 33.8 °F 87% 29.91 in 10.0 mi NNW 11.5 mph 18.4 mph N/A   Overcast
7:57 AM 37.0 °F 27.7 °F 34.0 °F 89% 29.94 in 6.0 mi NNW 16.1 mph 23.0 mph N/A   Overcast
8:25 AM 37.4 °F 32.1 °F 35.6 °F 93% 29.95 in 4.0 mi NNW 6.9 mph - 0.00 in   Overcast
8:57 AM 36.0 °F 28.5 °F 34.0 °F 93% 29.97 in 8.0 mi NNW 10.4 mph - 0.00 in   Overcast
9:11 AM 37.4 °F 30.3 °F 33.8 °F 87% 29.96 in 10.0 mi North 10.4 mph - N/A   Overcast
9:57 AM 37.9 °F 30.0 °F 35.1 °F 89% 29.99 in 10.0 mi NNW 12.7 mph 19.6 mph 0.00 in   Overcast
10:57 AM 37.9 °F 31.5 °F 34.0 °F 86% 30.00 in 10.0 mi North 9.2 mph 19.6 mph 0.00 in   Overcast
11:57 AM 35.1 °F 25.2 °F 32.0 °F 89% 30.04 in 10.0 mi NNW 16.1 mph 23.0 mph 0.00 in   Overcast
12:57 PM 34.0 °F 23.4 °F 30.0 °F 85% 30.05 in 10.0 mi NW 17.3 mph 26.5 mph 0.00 in   Overcast
1:42 PM 35.6 °F 26.6 °F 30.2 °F 81% 30.06 in 10.0 mi NNW 13.8 mph 23.0 mph N/A   Overcast
1:57 PM 35.1 °F 26.9 °F 30.0 °F 82% 30.08 in 10.0 mi NNW 11.5 mph 25.3 mph N/A   Overcast
2:46 PM 35.6 °F 27.1 °F 30.2 °F 81% 30.08 in 10.0 mi NNW 12.7 mph 25.3 mph 0.00 in Rain Light Rain
2:54 PM 35.6 °F 26.6 °F 30.2 °F 81% 30.08 in 10.0 mi NNW 13.8 mph 21.9 mph 0.00 in   Overcast
2:57 PM 37.0 °F 28.1 °F 30.0 °F 76% 30.10 in 10.0 mi NNW 15.0 mph 21.9 mph 0.00 in   Overcast
3:57 PM 37.0 °F 29.3 °F 30.0 °F 76% 30.12 in 10.0 mi NNW 11.5 mph 20.7 mph N/A   Overcast
4:57 PM 39.9 °F 31.1 °F 27.0 °F 60% 30.09 in 10.0 mi North 17.3 mph 27.6 mph N/A   Overcast
5:02 PM 39.2 °F 30.8 °F 26.6 °F 61% 30.07 in 10.0 mi North 15.0 mph 27.6 mph N/A   Overcast
5:57 PM 39.9 °F 32.9 °F 28.0 °F 63% 30.10 in 10.0 mi NNW 11.5 mph 20.7 mph N/A   Overcast
6:57 PM 39.9 °F 32.1 °F 26.1 °F 58% 30.11 in 10.0 mi NNW 13.8 mph 17.3 mph N/A   Overcast
7:57 PM 39.0 °F 32.3 °F 23.0 °F 53% 30.14 in 10.0 mi NNW 10.4 mph - N/A   Partly Cloudy
8:57 PM 36.0 °F 29.6 °F 24.1 °F 62% 30.17 in 10.0 mi NNW 8.1 mph - N/A   Clear
9:57 PM 35.1 °F 29.3 °F 21.9 °F 59% 30.20 in 10.0 mi NNW 6.9 mph - N/A   Clear